www.pogodaiklimat.ru

Погода и климат >> Архив погоды >> Россия >> Красноярский край >> Кемчуг


ПОГОДА в Кемчуге

  • Прогноз погоды в Кемчуге
  • Монитор погоды в Кемчуге

АРХИВ ПОГОДЫ в Кемчуге

Время (UTC), дата Ветер
(напр.,м/с)
 
Видим.   Явления Облачность Т
(С)
Тd
(С)
f
(%)
Тe
(С)
Тes
(С)
Комфортность P
(гПа)
Po
(гПа)
Тmin
(С)
Tmax
(С)
R
(мм)
R24
(мм)
S
(см)
12 19.03 ЮЗ 2 20 км 10/5 600 м
[Cb cap As op]
-4.3 -7.3 80 -8 -8 1029.5 987.1 -2.6 0.0
15 19.03 ЮЗ 1 4000 м слаб. ливневой снег 10/8 600 м
[Cb cap As trans]
-5.9 -6.6 95 -8 -8 1030.2 987.5
18 19.03 Ю 1 4000 м слаб. ливневой снег 10/6 600 м
[Cb cap As trans]
-6.9 -7.3 97 -9 -9 1030.6 987.8
21 19.03 ЮЗ 1 4000 м слаб. ливневой снег 10/10 600 м
[Cb cap]
-6.7 -7.1 97 -9 -9 1030.9 988.2
00 20.03 ЮЗ 1 4000 м слаб. ливневой снег 10/10 600 м
[Cb cap]
-7.0 -7.4 97 -10 -10 1032.4 989.4 -7.0 2 35
03 20.03 З 3 20 км {ливн. осадки} 9/9 600 м
[Cb cap]
-5.5 -6.9 90 -11 -11 1032.8 990.2
06 20.03 З 4 4000 м слаб. ливневой снег 8/8 600 м
[Cb cap]
-4.5 -7.3 81 -11 -10 1033.6 991.0
09 20.03 З 3 20 км {ливн. осадки} 8/8 600 м
[Cb cap]
-3.9 -8.5 70 -9 -8 1033.1 990.6
12 20.03 Ю 2 20 км {ливн. осадки} 10/10 600 м
[Cb cap]
-4.5 -8.4 74 -9 -9 1033.9 991.3 -3.4 0.3
15 20.03 Ю 1 50 км 10/10 600 м
[Cb cap]
-6.0 -7.0 93 -8 -8 1034.7 991.8
18 20.03 Ю 1 50 км 10/10 600 м
[Cb cap]
-6.0 -6.5 96 -9 -9 1034.4 991.5
21 20.03 штиль 0 50 км 10/10 600 м
[Cb cap]
-6.4 -6.9 96 -7 -7 1034.4 991.5
00 21.03 В 1 4000 м слаб. ливневой снег 10/10 600 м
[Cb cap]
-6.5 -7.1 95 -9 -9 1034.9 992.0 -6.8 0.0 35
03 21.03 ЮЗ 2 10 км слаб. ливневой снег 6/6 600 м
[Cb cap]
-4.0 -6.6 82 -8 -7 1036.0 993.3
06 21.03 Ю 4 20 км в посл. час ливневой снег 10/10 600 м
[Cb cap]
-2.7 -7.3 71 -8 -8 1034.9 992.6
09 21.03 ЮЗ 3 20 км 8/8 600 м
[Cb cap]
-0.4 -7.6 58 -5 -4 1033.8 991.9
12 21.03 ЮЗ 1 20 км 4/0
[Cs]
-1.5 -7.7 63 -3 -3 1032.9 990.9 0.0 0.0
15 21.03 Ю 2 50 км 3/0
[Cs]
-3.6 -7.7 73 -8 -8 1032.5 990.2
18 21.03 СВ 2 50 км ясно -5.2 -8.6 77 -9 -9 1031.9 989.3
21 21.03 СВ 2 50 км ясно -5.8 -8.7 80 -10 -10 1030.3 987.6
00 22.03 СВ 3 50 км 4/0
[Cs]
-5.6 -9.2 76 -11 -11 1029.1 986.6 -8.4 35
03 22.03 ЮЗ 1 20 км 5/0
[Ci fib]
-3.5 -9.3 64 -5 -1 1026.9 984.8 -11.0
06 22.03 ЮЗ 5 20 км 8/0
[Cs]
+4.9 -9.8 34 +1 +4 1023.5 982.7
09 22.03 ЮЗ 4
{10}
20 км 8/0
[Cs]
+6.8 -9.1 31 +4 +6 1021.0 980.6
12 22.03 ЮЗ 4 20 км 8/3 600 м
[Cb cap Cs]
+4.6 -7.2 42 +1 +1 1019.9 979.2 +6.8
15 22.03 З 4 50 км 8/0
[Cs]
+2.7 -8.5 43 -1 -1 1020.5 979.5
18 22.03 З 2 50 км 10/0
[Cs]
+0.2 -8.0 54 -3 -3 1021.2 979.9
21 22.03 В 1 50 км 8/3 600 м
[Cb cap Cs]
-1.8 -8.1 62 -4 -4 1021.7 980.0
00 23.03 Ю 2 20 км 8/6 600 м
[Cb cap Cs]
-2.3 -8.1 64 -6 -6 1022.0 980.3 -2.9 34
03 23.03 Ю 2 20 км 8/5 600 м
[Cb cap Ci fib]
+0.6 -7.2 56 -2 -1 1021.7 980.4 -3.0
06 23.03 З 5-10
{10}
20 км 10/8 600 м
[Cb cap As trans]
+2.8 -8.0 45 -2 -1 1021.2 980.2
09 23.03 ЮЗ 3
{10}
20 км 10/8 600 м
[Cb cap As op]
+3.0 -7.4 46 -0 -0 1020.5 979.5
12 23.03 штиль 0 20 км 10/10 600 м
[Cb cap]
+2.0 -5.6 57 +2 +2 1019.6 978.6 +3.4
15 23.03 штиль 0 50 км 3/3 600 м
[Cb cap]
+0.4 -6.0 62 -0 -0 1019.2 978.0
18 23.03 СВ 1 50 км 9/9 600 м
[Cb cap]
-1.0 -5.6 71 -3 -3 1019.1 977.6
21 23.03 В 2 50 км 10/8 600 м
[Cb cap As op]
-0.4 -5.5 68 -4 -4 1018.4 977.1
00 24.03 В 2 20 км 9/9 600 м
[Cb cap]
0.0 -4.2 73 -3 -3 1018.0 976.8 -1.0 34
03 24.03 ЮВ 2 20 км 10/6 600 м
[Cb cap As trans]
+2.4 -2.7 69 -0 0 1017.5 976.7
06 24.03 ЮЗ 4 20 км 8/3 600 м
[Cb cap Cs]
+6.4 -7.0 38 +3 +7 1015.6 975.4
09 24.03 З 2
{11}
20 км 10/10 600 м
[Cb cap]
+2.1 -2.5 72 -1 -1 1016.3 975.5
12 24.03 ЮЗ 1 20 км 8/6 600 м
[Cb cap Ci sp]
+2.5 -2.7 69 +1 +1 1015.4 974.7 +6.6
15 24.03 СЗ 2 50 км 10/10 600 м
[Cb cap]
+1.3 -3.0 73 -2 -2 1015.7 974.8
18 24.03 ЮЗ 1 50 км 10/10 600 м
[Cb cap]
+0.1 -3.2 78 -2 -2 1015.9 974.9
21 24.03 ЮЗ 2 50 км 10/10 600 м
[Cb cap]
-0.9 -2.3 90 -5 -5 1016.7 975.4
00 25.03 Ю 2 4000 м слаб. ливневой снег 10/10 600 м
[Cb cap]
-2.0 -2.4 97 -6 -6 1018.1 976.6 -2.0 0.3 33
03 25.03 СЗ 4 20 км {ливн. осадки} 9/6 600 м
[Cb cap Ci sp]
-1.1 -3.6 83 -7 -6 1020.2 978.7 -2.1
06 25.03 СЗ 3 20 км {ливн. осадки} 8/8 600 м
[Cb cap]
0.0 -5.8 65 -4 -3 1022.0 980.6
09 25.03 СЗ 3 20 км 6/6 600 м
[Cb cap]
+0.2 -6.1 63 -4 -3 1023.7 982.3
12 25.03 С 3 20 км 8/8 600 м
[Cb cap]
+0.2 -8.9 50 -4 -4 1026.1 984.6 +1.0 0.0
15 25.03 С 2 50 км 4/4 600 м
[Cb cap]
-1.9 -7.3 67 -5 -5 1030.0 988.0
18 25.03 штиль 0 50 км 3/3 600 м
[Cb cap]
-4.5 -7.0 83 -5 -5 1031.6 989.1
21 25.03 штиль 0 50 км 8/8 600 м
[Cb cap]
-6.7 -7.7 93 -8 -8 1033.4 990.6
00 26.03 ЮВ 1 20 км 8/8 600 м
[Cb cap]
-6.4 -7.2 94 -9 -9 1035.4 992.5 -7.1 29
03 26.03 Ю 1 20 км 3/3 1000 м
[Cu med, cong]
-0.9 -6.1 68 -3 +1 1034.7 992.7
06 26.03 ЮЗ 2 20 км 8/8 600 м
[Cb calv]
+1.5 -8.5 47 -1 +1 1034.3 992.7
09 26.03 ЮВ 1 20 км 8/8 600 м
[Cb cap]
+2.2 -9.4 42 +1 +2 1033.7 992.2

 

Местоположение метеостанции Кемчуг (Красноярский край, Россия): широта 56.10 долгота 91.67 высота над уровнем моря 332 м.

В архиве по умолчанию представлена погода в Кемчуге за последнюю неделю. Архивные данные за месяц целиком и за предыдущие месяцы, начиная с января 2011 года, Вы можете получить, выбрав интересующий диапазон дат из раскрывающегося списка и нажав кнопку "Ввод!".


*Определитесь, кто Вы:
робот инопланетянин человек

Внимание! Время в таблицах - всемирное. Для получения местного времени необходимо прибавить поправку, которая равна 7 ч.

Смотрите также архив погоды в соседних городах и на ближайших метеорологических станциях:

Погода в Каче (Красноярский край, Россия) (33 км)
Погода в Шумихе (Красноярский край, Россия) (43 км)
Погода в Емельяново (Красноярский край, Россия) (51 км)
Погода в Минино (Красноярский край, Россия) (66 км)
Погода в Роевом Ручье (Красноярский край, Россия) (67 км)
Погода в Красноярске (Красноярский край, Россия) (68 км)
Погода в Ачинске (Красноярский край, Россия) (74 км)
Погода в Балахте (Красноярский край, Россия) (80 км)
Погода в Назарово (Красноярский край, Россия) (84 км)
Погода в Погорельском Бору (Красноярский край, Россия) (85 км)

Пояснения к столбцам:

Ветер - указаны скорость ветра в м/с - средняя за 10 мин, порывы в срок и между сроками (в фигурных скобках) и направление, откуда дует ветер: С - северный, СВ - северо-восточный, В - восточный, ЮВ - юго-восточный, Ю - южный, ЮЗ - юго-западный, З - западный, СЗ - северо-западный.
Видимость - горизонтальная дальность видимости в метрах или километрах. При видимости от 1 до 10 км при отсутствии осадков обычно наблюдается дымка, при ухудшении видимости до 1 км и менее - туман. В сухую погоду видимость может ухудшаться дымом, пылью или мглою.
Явления - указаны атмосферные явления, наблюдавшиеся в срок или в последний час перед сроком; фигурными скобками обозначены явления, наблюдавшиеся между сроками (за 1-3 часа до срока); квадратными скобками обозначены град или гололедные отложения с указанием их диаметра в мм.
Облачность - указаны через наклонную черту общая и нижняя облачность в баллах и высота нижней границы облаков в метрах; квадратными скобками обозначены формы облаков: Ci - перистые, Cs - перисто-слоистые, Cc - перисто-кучевые, Ac - высококучевые, As - высокослоистые, Sc - слоисто-кучевые, Ns - слоисто-дождевые, Cu - кучевые, Cb - кучево-дождевые. Подробнее классификацию облаков см. в Атласе облаков (PDF).
T - Температура воздуха - температура, измеренная на высоте 2 м над землей.
Td - Температура точки росы - температура, при понижении до которой содержащийся в воздухе водяной пар достигнет насыщения.
f - Относительная влажность воздуха - влажноcть воздуха, измеренная на высоте 2 м над землей.
Te - Эффективная температура - температура, которую ощущает одетый по сезону человек в тени. Характеристика душности погоды. При расчете учитывается влияние влажности воздуха и скорости ветра на теплоощущения человека.
Tes - Эффективная температура на солнце - температура, которую ощущает человек, с поправкой на солнечный нагрев. Характеристика знойности погоды. Зависит от высоты солнца над горизонтом, облачности и скорости ветра. Ночью, в пасмурную погоду, а также при ветре 12 м/с и более поправка равна нулю.
P - Атмосферное давление - приведенное к уровню моря атмосферное давление.
Po - Атмосферное давление - измеренное на уровне метеостанции атмосферное давление.
Tmin - Минимальная температура - минимум температуры воздуха на высоте 2 м над землей.
Tmax - Максимальная температура - максимум температуры воздуха на высоте 2 м над землей.
R - Количество осадков - Количество выпавших осадков за период времени, мм. При наведении курсора мыши на число - период времени, за который выпало указанное количество осадков.
R24 - Количество осадков - Количество выпавших осадков за 24 часа, мм.
S - Снежный покров - Высота снежного покрова, см. При наведении курсора мыши на число - состояние снежного покрова и степень покрытия местности в баллах.